Simultaneous Nadir Overpasses (SNOs) Predictions

Prediction of SNOs between GOES-16 and NPP Satellite Orbit:

Table of predicted SNOs for the next 14.0 days since TLE Epoch: 6/16/2022
Index Date Time (GOES-16) GOES-16 Lat,Lon NPP Lat,Lon Distance(km) Time Diff (sec)
1 06/16/2022 18:22:53 -0.01, -75.20 0.24, -74.10 125.53 80
2 06/18/2022 06:44:42 0.01, -75.20 0.95, -79.37 475.38 80
3 06/19/2022 06:23:18 0.01, -75.21 -0.06, -74.85 41.05 80
4 06/21/2022 18:26:33 -0.01, -75.24 -0.10, -75.63 45.25 80
5 06/22/2022 18:10:30 -0.01, -75.25 0.91, -71.11 472.07 80
6 06/24/2022 06:32:19 0.01, -75.27 0.28, -76.38 126.95 80
7 06/25/2022 06:10:57 0.00, -75.29 -0.79, -71.87 390.47 80
8 06/26/2022 18:32:54 0.00, -75.31 -0.43, -77.17 212.00 80
9 06/27/2022 18:16:50 0.01, -75.33 0.59, -72.64 305.82 80
10 06/29/2022 06:38:41 -0.01, -75.36 0.54, -77.93 292.26 80
